Find Local Weather

World > North America > United States > Virginia

Harrisonburg, Virginia Regional Weather

Lat: 38.44N, Lon: 78.87W
Wx Zone: VAZ026
Feedback
Expires:201808202300;;966942
ASUS41 KLWX 202211
RWRLWX

REGIONAL WEATHER ROUNDUP
NATIONAL WEATHER SERVICE BALTIMORE MD/WASHINGTON DC
600 PM EDT MON AUG 20 2018

Note: "FAIR" indicates few or no clouds below 12,000 feet
with no significant weather and/or obstructions to visibility.
 TC=TEMPERATURE CELSIUS

 * =Non NWS site. Station does not report precipitation (e.g. rain,
    snow, etc.), thunder, or fog.


VAZ025>031-202300-
SHENANDOAH VALLEY
  
CITY           SKY/WX    TMP DP  RH WIND       PRES   REMARKS
WINCHESTER*    CLOUDY    73  68  83 E5        30.08S                  
FRONT ROYAL*   PTSUNNY   77  70  78 E8        30.05F                  
LURAY*         CLOUDY    77  70  78 N3        30.06R                  
NEW MARKET*    CLOUDY    75  71  85 N3        30.04S                  
STAUNTON*      CLOUDY    74  68  82 CALM      30.10R                  
WAYNESBORO*    CLOUDY    72  70  95 SE5       30.09S                  

$$


SKY/WX - Weather  TMP - Temperature  DP - Dewpoint  RH - Relative Humidity
WIND - Wind Direction/Speed PRES - Barometric Pressure